Tracking 30516 objects as of 20-May-2025
HD Live streaming from Space Station
objects crossing your sky now

STARLINK-31318

Track STARLINK-31318 now!
10-day predictions
STARLINK-31318 is classified as:


NORAD ID: 58885
Int'l Code: 2024-020K
Perigee: 481.7 km
Apogee: 483.1 km
Inclination: 53.2 °
Period: 94.1 minutes
Semi major axis: 6853 km
RCS: Unknown
Launch date: January 29, 2024
Source: United States (US)
Launch site: AIR FORCE WESTERN TEST RANGE (AFWTR)
Your satellite tracking list
Your tracking list is empty




NASA's NSSDC Master Catalog

Two Line Element Set (TLE):
1 58885U 24020K   25140.53881820  .00001530  00000-0  63804-4 0  9993
2 58885  53.1617 244.4062 0001072  87.5198 272.5925 15.30184343 73182
Source of the keplerian elements: AFSPC